Date String (YYYY-MM-DD hh:mm:ss) UTC,Instrument flags,absolute air pressure of the measurement (hPa),sample flow rate (lpm),inlet stack bypass flow (lpm),air temperature of the measurement (°C),ambient temperature measured by the external sensor (°C),aerosol sample conditioner tube jacket temperature (°C),OPC LED temperature (°C),internal box temperature (°C),relative humidity of the measurement (%),span deviation,mass concentration of particles derived from Lorenz-Mie calculation of OPC scattering (μg/m³),mass concentration of particles derived from Lorenz-Mie calculation of OPC scattering (μg/m³),mass concentration of particles derived from Lorenz-Mie calculation of OPC scattering (μg/m³)
DateTimeUTC,F1_M11,P_M11,Q1_M11,Q2_M11,T1_M11,T2_M11,T3_M11,T4_M11,T5_M11,U1_M11,ZSPAN_M11,X2_M11,X0_M11,X1_M11
2024-02-14 22:00:00,SystemResetWarning,0825.2,5.00,000.00,021.5,021.0,000.0,029.8,023.3,14.8,0000.0,0005.52,0010.62,0005.05
2024-02-14 22:01:00,SystemResetWarning,0825.2,5.00,000.00,021.5,021.0,000.0,029.8,023.3,14.9,0000.0,0005.52,0010.58,0005.05
2024-02-14 22:02:00,SystemResetWarning,0825.2,5.00,000.00,021.5,021.0,000.0,029.8,023.3,15.1,0000.0,0005.53,0010.66,0005.04
2024-02-14 22:03:00,SystemResetWarning,0825.1,5.01,000.00,021.5,021.0,000.0,029.8,023.3,15.3,0000.0,0005.56,0011.27,0005.04
2024-02-14 22:04:00,SystemResetWarning,0825.1,5.01,000.00,021.5,021.0,000.0,029.9,023.3,15.3,0000.0,0005.57,0011.18,0005.06
2024-02-14 22:05:00,SystemResetWarning,0825.1,5.00,000.00,021.5,021.0,000.0,029.9,023.3,15.4,0000.0,0005.58,0010.80,0005.04
2024-02-14 22:06:00,SystemResetWarning,0825.2,5.01,000.00,021.6,021.0,000.0,029.9,023.3,15.5,0000.0,0005.55,0010.66,0005.00
2024-02-14 22:07:00,SystemResetWarning,0825.1,5.00,000.00,021.6,021.1,000.0,029.9,023.4,15.4,0000.0,0005.47,0010.91,0004.95
2024-02-14 22:08:00,SystemResetWarning,0825.1,5.00,000.00,021.6,021.1,000.0,029.9,023.4,15.3,0000.0,0005.44,0011.08,0004.88
2024-02-14 22:09:00,SystemResetWarning,0825.1,5.00,000.00,021.6,021.1,000.0,029.9,023.4,15.6,0000.0,0005.41,0011.15,0004.83
2024-02-14 22:10:00,SystemResetWarning,0825.1,5.00,000.00,021.6,021.1,000.0,029.9,023.4,15.6,0000.0,0005.36,0011.17,0004.79
2024-02-14 22:11:00,SystemResetWarning,0825.1,5.00,000.00,021.6,021.1,000.0,029.9,023.4,15.9,0000.0,0005.34,0012.05,0004.75
2024-02-14 22:12:00,SystemResetWarning,0825.1,5.00,000.00,021.6,021.1,000.0,029.9,023.4,15.7,0000.0,0005.29,0012.28,0004.73
2024-02-14 22:13:00,SystemResetWarning,0825.2,5.00,000.00,021.6,021.1,000.0,029.9,023.4,15.7,0000.0,0005.24,0011.48,0004.70
2024-02-14 22:14:00,SystemResetWarning,0825.3,5.00,000.00,021.6,021.1,000.0,029.9,023.4,15.5,0000.0,0005.18,0010.99,0004.65
2024-02-14 22:15:00,SystemResetWarning,0825.2,5.01,000.00,021.6,021.1,000.0,030.0,023.4,15.6,0000.0,0005.09,0010.21,0004.59
2024-02-14 22:16:00,SystemResetWarning,0825.2,5.01,000.00,021.6,021.1,000.0,030.0,023.4,15.6,0000.0,0005.04,0010.10,0004.56
2024-02-14 22:17:00,SystemResetWarning,0825.1,5.00,000.00,021.6,021.1,000.0,030.0,023.4,15.0,0000.0,0004.96,0009.77,0004.53
2024-02-14 22:18:00,SystemResetWarning,0825.1,5.00,000.00,021.6,021.2,000.0,030.0,023.4,14.8,0000.0,0004.98,0009.66,0004.53
2024-02-14 22:19:00,SystemResetWarning,0825.1,5.00,000.00,021.6,021.2,000.0,030.0,023.4,14.9,0000.0,0004.95,0010.30,0004.52
2024-02-14 22:20:00,SystemResetWarning,0825.2,4.99,000.00,021.6,021.2,000.0,030.0,023.5,14.2,0000.0,0004.90,0010.15,0004.51
2024-02-14 22:21:00,SystemResetWarning,0825.2,5.00,000.00,021.7,021.2,000.0,030.0,023.5,12.9,0000.0,0004.89,0010.08,0004.49
2024-02-14 22:22:00,SystemResetWarning,0825.2,5.00,000.00,021.7,021.2,000.0,030.0,023.5,13.0,0000.0,0004.86,0009.27,0004.46
2024-02-14 22:23:00,SystemResetWarning,0825.2,5.00,000.00,021.7,021.2,000.0,030.0,023.5,13.6,0000.0,0004.83,0009.18,0004.41
2024-02-14 22:24:00,SystemResetWarning,0825.1,5.00,000.00,021.7,021.2,000.0,030.0,023.5,13.4,0000.0,0004.78,0009.08,0004.37
2024-02-14 22:25:00,SystemResetWarning,0825.1,5.00,000.00,021.7,021.3,000.0,030.0,023.6,13.3,0000.0,0004.73,0009.00,0004.32
2024-02-14 22:26:00,SystemResetWarning,0825.1,5.00,000.00,021.7,021.3,000.0,030.0,023.6,13.2,0000.0,0004.67,0008.92,0004.27
2024-02-14 22:27:00,SystemResetWarning,0825.1,5.00,000.00,021.7,021.3,000.0,030.0,023.6,12.8,0000.0,0004.60,0008.79,0004.21
2024-02-14 22:28:00,SystemResetWarning,0825.2,5.00,000.00,021.7,021.3,000.0,030.1,023.6,12.8,0000.0,0004.53,0008.74,0004.14
2024-02-14 22:29:00,SystemResetWarning,0825.3,5.00,000.00,021.7,021.3,000.0,030.1,023.6,12.5,0000.0,0004.41,0008.34,0004.03
2024-02-14 22:30:00,SystemResetWarning,0825.2,5.00,000.00,021.7,021.3,000.0,030.1,023.6,12.8,0000.0,0004.32,0007.39,0003.93
2024-02-14 22:31:00,SystemResetWarning,0825.2,5.00,000.00,021.8,021.3,000.0,030.1,023.6,12.7,0000.0,0004.25,0007.34,0003.86
2024-02-14 22:32:00,SystemResetWarning,0825.1,5.00,000.00,021.8,021.3,000.0,030.1,023.6,12.7,0000.0,0004.14,0007.11,0003.78
2024-02-14 22:33:00,SystemResetWarning,0825.2,5.00,000.00,021.8,021.3,000.0,030.1,023.6,12.6,0000.0,0004.03,0006.71,0003.70
2024-02-14 22:34:00,SystemResetWarning,0825.1,5.00,000.00,021.8,021.3,000.0,030.1,023.6,12.8,0000.0,0003.94,0006.16,0003.62
2024-02-14 22:35:00,SystemResetWarning,0825.1,4.99,000.00,021.8,021.3,000.0,030.1,023.6,13.1,0000.0,0003.82,0005.40,0003.54
2024-02-14 22:36:00,SystemResetWarning,0825.2,5.00,000.00,021.8,021.4,000.0,030.1,023.6,13.0,0000.0,0003.73,0005.24,0003.47
2024-02-14 22:37:00,SystemResetWarning,0825.2,5.00,000.00,021.8,021.4,000.0,030.1,023.7,12.7,0000.0,0003.65,0005.12,0003.40
2024-02-14 22:38:00,SystemResetWarning,0825.2,5.01,000.00,021.8,021.4,000.0,030.2,023.7,12.8,0000.0,0003.59,0004.99,0003.35
2024-02-14 22:39:00,SystemResetWarning,0825.2,5.00,000.00,021.9,021.4,000.0,030.2,023.7,12.9,0000.0,0003.55,0004.96,0003.30
2024-02-14 22:40:00,SystemResetWarning,0825.2,5.00,000.00,021.9,021.4,000.0,030.2,023.7,12.7,0000.0,0003.54,0004.94,0003.29
2024-02-14 22:41:00,SystemResetWarning,0825.3,5.00,000.00,021.9,021.4,000.0,030.2,023.7,12.6,0000.0,0003.51,0004.90,0003.27
2024-02-14 22:42:00,SystemResetWarning,0825.2,5.00,000.00,021.9,021.4,000.0,030.2,023.7,12.6,0000.0,0003.47,0005.00,0003.25
2024-02-14 22:43:00,SystemResetWarning,0825.2,5.00,000.00,021.9,021.4,000.0,030.2,023.7,12.8,0000.0,0003.45,0004.96,0003.23
2024-02-14 22:44:00,SystemResetWarning,0825.2,4.99,000.00,021.9,021.5,000.0,030.2,023.8,12.9,0000.0,0003.44,0004.93,0003.22
2024-02-14 22:45:00,SystemResetWarning,0825.3,5.00,000.00,021.9,021.5,000.0,030.2,023.8,12.7,0000.0,0003.42,0004.89,0003.19
2024-02-14 22:46:00,SystemResetWarning,0825.3,4.99,000.00,021.9,021.5,000.0,030.2,023.8,12.4,0000.0,0003.41,0004.92,0003.19
2024-02-14 22:47:00,SystemResetWarning,0825.2,5.00,000.00,022.0,021.5,000.0,030.3,023.8,12.2,0000.0,0003.42,0004.97,0003.19
2024-02-14 22:48:00,SystemResetWarning,0825.2,5.01,000.00,022.0,021.5,000.0,030.3,023.8,12.2,0000.0,0003.42,0004.99,0003.19
2024-02-14 22:49:00,SystemResetWarning,0825.3,5.01,000.00,022.0,021.5,000.0,030.3,023.8,12.4,0000.0,0003.43,0005.86,0003.19
2024-02-14 22:50:00,SystemResetWarning,0825.3,5.00,000.00,022.0,021.5,000.0,030.3,023.8,12.3,0000.0,0003.42,0005.86,0003.19
2024-02-14 22:51:00,SystemResetWarning,0825.3,4.99,000.00,022.0,021.6,000.0,030.3,023.9,12.3,0000.0,0003.40,0006.16,0003.18
2024-02-14 22:52:00,SystemResetWarning,0825.3,4.98,000.00,022.0,021.6,000.0,030.3,023.9,12.3,0000.0,0003.38,0006.38,0003.16
2024-02-14 22:53:00,SystemResetWarning,0825.4,4.99,000.00,022.0,021.6,000.0,030.3,023.9,12.4,0000.0,0003.38,0006.11,0003.15
2024-02-14 22:54:00,SystemResetWarning,0825.4,5.01,000.00,022.1,021.6,000.0,030.3,023.9,12.4,0000.0,0003.37,0006.06,0003.13
2024-02-14 22:55:00,SystemResetWarning,0825.4,5.00,000.00,022.1,021.6,000.0,030.4,023.9,12.3,0000.0,0003.34,0006.04,0003.09
2024-02-14 22:56:00,SystemResetWarning,0825.4,5.01,000.00,022.1,021.7,000.0,030.4,024.0,12.2,0000.0,0003.33,0006.09,0003.05
2024-02-14 22:57:00,SystemResetWarning,0825.5,4.99,000.00,022.1,021.7,000.0,030.4,024.0,12.0,0000.0,0003.29,0005.99,0003.00
2024-02-14 22:58:00,SystemResetWarning,0825.5,4.99,000.00,022.1,021.7,000.0,030.4,024.0,11.9,0000.0,0003.26,0005.87,0002.96
2024-02-14 22:59:00,SystemResetWarning,0825.5,5.00,000.00,022.2,021.7,000.0,030.4,024.0,12.1,0000.0,0003.23,0005.92,0002.89
